JCSAT-17

Last updated on Tue Sep 22 2026 00:03:15 GMT+0000 (Coordinated Universal Time)

1 45245U 20013A 26264.51602412 -.00000316 00000+0 00000+0 0 9996 2 45245 5.3983 357.7502 0004498 181.2601 143.1471 1.00271407 24192
UTC large
Height (km)
Speed (km/s)
/
Latitude / Longitude
Inclination (degrees)
Orbital Period (minutes)
Azimuth
Elevation
Range (km)
Doppler Factor

Next 0 passes for location: London (51.5072 / 0.1276)

No passes found over London.
JCSAT-17